Hourly Weather Rudnya Koshelevskaya

Today, 13 April, Tuesday

Time Temperature Precipitation Wind Pressure Humidity
00:00 +9°C° 0 mm 0 mps 752 mmHg 90%
01:00 +9°C° 0 mm 0 mps 752 mmHg 90%
02:00 +10°C° 0 mm 1 mps 752 mmHg 90%
03:00 +10°C° 0 mm 1 mps 752 mmHg 91%
04:00 +9°C° 0 mm 1 mps 752 mmHg 91%
05:00 +9°C° 0 mm 1 mps 752 mmHg 92%
06:00 +10°C° 0 mm 1 mps 752 mmHg 91%
07:00 +10°C° 0 mm 1 mps 752 mmHg 90%
08:00 +11°C° 0 mm 1 mps 752 mmHg 88%
09:00 +10°C° 0 mm 2 mps 752 mmHg 87%
10:00 +12°C° 0 mm 2 mps 752 mmHg 86%
11:00 +12°C° 0 mm 2 mps 752 mmHg 86%
12:00 +11°C° 0.1 mm 3 mps 752 mmHg 87%
13:00 +11°C° 0.1 mm 3 mps 751 mmHg 88%
14:00 +11°C° 0.1 mm 3 mps 751 mmHg 90%
15:00 +11°C° 0 mm 3 mps 751 mmHg 87%
16:00 +11°C° 0 mm 3 mps 751 mmHg 84%
17:00 +13°C° 0 mm 2 mps 751 mmHg 82%
18:00 +12°C° 0 mm 2 mps 751 mmHg 84%
19:00 +10°C° 0 mm 2 mps 751 mmHg 87%
20:00 +10°C° 0 mm 2 mps 750 mmHg 89%
21:00 +10°C° 0 mm 2 mps 750 mmHg 90%
22:00 +10°C° 0 mm 2 mps 750 mmHg 90%
23:00 +10°C° 0 mm 2 mps 750 mmHg 91%

Tomorrow, 14 April, Wednesday

Time Temperature Precipitation Wind Pressure Humidity
00:00 +9°C° 0 mm 2 mps 750 mmHg 91%
01:00 +9°C° 0 mm 2 mps 749 mmHg 92%
02:00 +9°C° 0 mm 2 mps 749 mmHg 93%
03:00 +9°C° 0 mm 2 mps 749 mmHg 93%
04:00 +8°C° 0 mm 2 mps 749 mmHg 94%
05:00 +8°C° 0 mm 2 mps 749 mmHg 94%
06:00 +8°C° 0 mm 2 mps 749 mmHg 92%
07:00 +9°C° 0 mm 3 mps 749 mmHg 90%
08:00 +9°C° 0 mm 3 mps 749 mmHg 88%
09:00 +10°C° 0 mm 3 mps 749 mmHg 82%
10:00 +11°C° 0 mm 4 mps 749 mmHg 76%
11:00 +12°C° 0 mm 4 mps 749 mmHg 71%
12:00 +12°C° 0 mm 4 mps 749 mmHg 67%
13:00 +13°C° 0 mm 4 mps 748 mmHg 64%
14:00 +13°C° 0 mm 4 mps 748 mmHg 60%
15:00 +14°C° 0 mm 3 mps 748 mmHg 60%
16:00 +14°C° 0 mm 3 mps 748 mmHg 60%
17:00 +15°C° 0 mm 2 mps 748 mmHg 59%
18:00 +13°C° 0 mm 2 mps 748 mmHg 65%
19:00 +12°C° 0 mm 2 mps 748 mmHg 70%
20:00 +11°C° 0 mm 1 mps 748 mmHg 76%
21:00 +11°C° 0 mm 1 mps 748 mmHg 77%
22:00 +11°C° 0 mm 1 mps 748 mmHg 78%
23:00 +10°C° 0 mm 1 mps 747 mmHg 79%

Day after tomorrow, 15 April, Thursday

Time Temperature Precipitation Wind Pressure Humidity
00:00 +10°C° 0 mm 1 mps 747 mmHg 81%
01:00 +10°C° 0 mm 1 mps 747 mmHg 82%
02:00 +8°C° 0 mm 0 mps 747 mmHg 84%
03:00 +9°C° 0 mm 1 mps 747 mmHg 85%
04:00 +9°C° 0 mm 1 mps 747 mmHg 85%
05:00 +9°C° 0 mm 1 mps 747 mmHg 86%
06:00 +10°C° 0 mm 1 mps 747 mmHg 82%
07:00 +11°C° 0 mm 1 mps 747 mmHg 78%
08:00 +12°C° 0 mm 2 mps 748 mmHg 75%
09:00 +13°C° 0.2 mm 2 mps 747 mmHg 67%
10:00 +15°C° 0.2 mm 2 mps 747 mmHg 60%
11:00 +16°C° 0.2 mm 2 mps 747 mmHg 53%
12:00 +16°C° 0.1 mm 2 mps 747 mmHg 50%
13:00 +17°C° 0.1 mm 2 mps 746 mmHg 48%
14:00 +17°C° 0.1 mm 2 mps 746 mmHg 46%
15:00 +16°C° 0.2 mm 2 mps 746 mmHg 52%
16:00 +16°C° 0.2 mm 3 mps 746 mmHg 57%
17:00 +14°C° 0.2 mm 3 mps 746 mmHg 63%
18:00 +13°C° 0.3 mm 3 mps 746 mmHg 70%
19:00 +12°C° 0.3 mm 3 mps 746 mmHg 77%
20:00 +11°C° 0.3 mm 3 mps 746 mmHg 83%
21:00 +10°C° 0.2 mm 3 mps 746 mmHg 85%
22:00 +10°C° 0.2 mm 3 mps 746 mmHg 87%
23:00 +10°C° 0.2 mm 3 mps 746 mmHg 89%

16 April, Friday

Time Temperature Precipitation Wind Pressure Humidity
00:00 +9°C° 0 mm 3 mps 746 mmHg 90%
01:00 +9°C° 0 mm 3 mps 746 mmHg 91%
02:00 +8°C° 0 mm 3 mps 746 mmHg 92%
03:00 +8°C° 0 mm 3 mps 746 mmHg 93%
04:00 +8°C° 0 mm 3 mps 746 mmHg 93%
05:00 +7°C° 0 mm 3 mps 746 mmHg 94%
06:00 +8°C° 0.3 mm 3 mps 746 mmHg 92%
07:00 +7°C° 0.3 mm 4 mps 747 mmHg 90%
08:00 +8°C° 0.3 mm 4 mps 747 mmHg 89%
09:00 +9°C° 0.8 mm 3 mps 747 mmHg 89%
10:00 +9°C° 0.8 mm 3 mps 747 mmHg 90%
11:00 +9°C° 0.8 mm 3 mps 747 mmHg 90%
12:00 +9°C° 0.3 mm 3 mps 748 mmHg 90%
13:00 +9°C° 0.3 mm 3 mps 748 mmHg 89%
14:00 +10°C° 0.3 mm 3 mps 748 mmHg 88%
15:00 +10°C° 0.5 mm 3 mps 748 mmHg 84%
16:00 +11°C° 0.5 mm 3 mps 748 mmHg 81%
17:00 +11°C° 0.5 mm 3 mps 748 mmHg 77%
18:00 +10°C° 0.1 mm 3 mps 749 mmHg 80%
19:00 +9°C° 0.1 mm 2 mps 749 mmHg 83%
20:00 +8°C° 0.1 mm 2 mps 749 mmHg 85%
21:00 +8°C° 0 mm 2 mps 750 mmHg 85%
22:00 +8°C° 0 mm 2 mps 750 mmHg 84%
23:00 +8°C° 0 mm 1 mps 750 mmHg 84%

17 April, Saturday

Time Temperature Precipitation Wind Pressure Humidity
00:00 +8°C° 0 mm 1 mps 750 mmHg 84%
01:00 +7°C° 0 mm 2 mps 751 mmHg 84%
02:00 +7°C° 0 mm 2 mps 751 mmHg 85%
03:00 +8°C° 0 mm 1 mps 751 mmHg 87%
04:00 +8°C° 0 mm 1 mps 751 mmHg 89%
05:00 +7°C° 0 mm 1 mps 751 mmHg 92%
06:00 +7°C° 0.1 mm 2 mps 752 mmHg 90%
07:00 +8°C° 0.1 mm 2 mps 752 mmHg 89%
08:00 +9°C° 0.1 mm 2 mps 752 mmHg 88%
09:00 +9°C° 0.3 mm 3 mps 753 mmHg 89%
10:00 +8°C° 0.3 mm 4 mps 753 mmHg 89%
11:00 +8°C° 0.3 mm 4 mps 753 mmHg 90%
12:00 +9°C° 0.2 mm 5 mps 753 mmHg 88%
13:00 +9°C° 0.2 mm 5 mps 753 mmHg 85%
14:00 +9°C° 0.2 mm 5 mps 754 mmHg 82%
15:00 +10°C° 0 mm 5 mps 754 mmHg 80%
16:00 +10°C° 0 mm 5 mps 754 mmHg 77%
17:00 +12°C° 0 mm 4 mps 754 mmHg 74%
18:00 +10°C° 0 mm 5 mps 754 mmHg 73%
19:00 +10°C° 0 mm 5 mps 755 mmHg 73%
20:00 +9°C° 0 mm 5 mps 755 mmHg 72%
21:00 +9°C° 0 mm 5 mps 755 mmHg 71%
22:00 +8°C° 0 mm 6 mps 755 mmHg 69%
23:00 +7°C° 0 mm 6 mps 756 mmHg 68%

18 April, Sunday

Time Temperature Precipitation Wind Pressure Humidity
00:00 +7°C° 0 mm 6 mps 756 mmHg 69%
01:00 +6°C° 0 mm 5 mps 756 mmHg 70%
02:00 +6°C° 0 mm 5 mps 756 mmHg 71%
03:00 +5°C° 0 mm 5 mps 757 mmHg 71%
04:00 +5°C° 0 mm 5 mps 757 mmHg 72%
05:00 +5°C° 0 mm 5 mps 757 mmHg 72%
06:00 +5°C° 0 mm 5 mps 757 mmHg 72%
07:00 +6°C° 0 mm 5 mps 758 mmHg 72%
08:00 +6°C° 0 mm 5 mps 758 mmHg 71%
09:00 +8°C° 0 mm 5 mps 758 mmHg 67%
10:00 +9°C° 0 mm 5 mps 758 mmHg 64%
11:00 +10°C° 0 mm 6 mps 758 mmHg 60%
12:00 +10°C° 0 mm 5 mps 759 mmHg 61%
13:00 +12°C° 0 mm 5 mps 759 mmHg 63%
14:00 +12°C° 0 mm 5 mps 759 mmHg 65%
15:00 +12°C° 0 mm 4 mps 759 mmHg 65%
16:00 +12°C° 0 mm 3 mps 759 mmHg 66%
17:00 +12°C° 0 mm 3 mps 759 mmHg 66%
18:00 +12°C° 0 mm 2 mps 759 mmHg 68%
19:00 +10°C° 0 mm 2 mps 759 mmHg 70%
20:00 +10°C° 0 mm 2 mps 759 mmHg 73%
21:00 +9°C° 0 mm 3 mps 759 mmHg 72%
22:00 +9°C° 0 mm 3 mps 759 mmHg 70%
23:00 +9°C° 0 mm 3 mps 759 mmHg 69%
Show more